Tracking 20942 objects as of 10-Jul-2020
HD Live streaming from Space Station
objects crossing your sky now

METEOR 1-27 DEB

Track METEOR 1-27 DEB now!
10-day predictions


NORAD ID: 38533
Int'l Code: 1977-024D
Perigee: 779.5 km
Apogee: 832.1 km
Inclination: 81.2 °
Period: 100.8 minutes
Semi major axis: 7176 km
RCS: 0.0037 m2 (small)
Launch date: April 5, 1977
Source: Commonwealth of Independent States (former USSR) (CIS)
Launch site: PLESETSK MISSILE AND SPACE COMPLEX (PKMTR)

Note: This is SATELLITE DEBRIS
aabbcc
Your satellite tracking list
Your tracking list is empty




NASA's NSSDC Master Catalog

Two Line Element Set (TLE):
1 38533U 77024D   20189.22626599  .00001277  00000-0  50701-3 0  9996
2 38533  81.2393  12.1242 0036620 202.1988 157.7609 14.27921966487673
Source of the keplerian elements: AFSPC